Observations for Trim Patrick St
| Time | AQI | Temp °C | Hum % | Pres Pa | CO μg/m³ | H₂S μg/m³ | NO μg/m³ | NO₂ μg/m³ | O₃ μg/m³ | SO₂ μg/m³ | PM1 μg/m³ | PM2.5 μg/m³ | PM10 μg/m³ |
|---|---|---|---|---|---|---|---|---|---|---|---|---|---|
| Thursday 6 August 2026 | |||||||||||||
| 17:32 | 3 | 26.3 | 38 | 68,989 | 0 | 3.17 | 1.19 | 15.1 | 66.13 | 9.9 | 2 | 7.99 | 8.78 |
| 17:31 | 3 | 26.3 | 37 | 68,993 | 0 | 1.89 | 1.35 | 13.02 | 58.11 | 9.43 | 2 | 7.22 | 7.94 |
| 17:30 | 3 | 26.3 | 37 | 68,997 | 0 | 5.27 | 1.47 | 16.98 | 68.51 | 9.23 | 2 | 7.23 | 7.96 |
| 17:29 | 3 | 26.3 | 37 | 69,001 | 0 | 5.75 | 1.46 | 13.28 | 59.65 | 10.04 | 2.86 | 8.79 | 9.67 |
| 17:28 | 3 | 26.3 | 38 | 68,977 | 0 | 9.51 | 1.22 | 27.62 | 74.72 | 10.03 | 2.86 | 7.99 | 8.79 |
| 17:27 | 3 | 26.2 | 38 | 68,973 | 0 | 4.06 | 1.37 | 11.24 | 64.06 | 9.71 | 2.86 | 8.75 | 9.62 |
| 17:26 | 3 | 26.2 | 37 | 68,973 | 0 | 9.01 | 1.26 | 13.59 | 67.83 | 9.81 | 2 | 8 | 8.81 |
| 17:25 | 3 | 26.1 | 38 | 68,969 | 0 | 9.04 | 1.23 | 34.67 | 61.76 | 8.94 | 2 | 7.2 | 7.92 |
| 17:24 | 3 | 26.1 | 37 | 68,963 | 0 | 6.19 | 1.2 | 12.7 | 63.48 | 9.87 | 2 | 7.23 | 7.95 |
| 17:23 | 3 | 26 | 38 | 68,959 | 0 | 6.89 | 1.35 | 13.85 | 65.59 | 9 | 2 | 7.95 | 8.74 |
| 17:22 | 3 | 26 | 38 | 68,953 | 0 | 8.28 | 1.3 | 22.04 | 67.39 | 9.51 | 2 | 7.93 | 8.73 |
| 17:21 | 3 | 25.9 | 38 | 68,975 | 0 | 11.26 | 1.44 | 19.25 | 70.75 | 9.76 | 2 | 7.95 | 8.75 |
| 17:20 | 3 | 25.9 | 38 | 68,975 | 0 | 12.91 | 1.36 | 21.12 | 69.48 | 10.11 | 2 | 7.16 | 7.87 |
| 17:19 | 3 | 25.8 | 39 | 68,975 | 0 | 13.18 | 1.36 | 28.38 | 71.75 | 9.5 | 2 | 7.13 | 7.84 |
| 17:16 | 3 | 25.7 | 38 | 68,993 | 0 | 11.91 | 1.27 | 13.56 | 74.31 | 10.06 | 2 | 7.17 | 7.89 |
| 17:12 | 3 | 25.5 | 38 | 68,969 | 0 | 13.6 | 1.57 | 19.86 | 73.94 | 9.77 | 2 | 7.16 | 7.87 |
| 17:11 | 3 | 25.5 | 38 | 68,973 | 0 | 13.83 | 1.5 | 29.17 | 69.79 | 9.43 | 2 | 7.93 | 8.72 |
| 17:10 | 3 | 25.4 | 39 | 68,973 | 0 | 14.42 | 1.39 | 23.91 | 79.12 | 9.3 | 2 | 7.11 | 7.82 |
| 17:09 | 2 | 25.3 | 38 | 68,981 | 0 | 15.57 | 1.53 | 14.44 | 83.48 | 10.25 | 2 | 7.16 | 7.88 |
| 17:07 | 3 | 25.2 | 38 | 68,965 | 0 | 14.22 | 1.53 | 14.58 | 83.41 | 9.52 | 2 | 7.16 | 7.88 |